Home   Weather   Nøtterøy   Past weeks

Flag for Norway Past Weather in Nøtterøy, Norway — Yesterday and Last 2 Weeks

37 °F


Feels Like: 32 °F
Forecast: 43 / 50 °F
Wind: 7 mph from Southwest

Location: Torp

Current Time: Oct 26, 2016 at 6:10:22 AM

Latest Report: Oct 26, 2016 at 5:20 AM

Visibility: N/A

Pressure: 30.24 "Hg

Humidity: 100%

Dew Point: 37 °F

Location of NøtterøyLocation

Past Weather in Nøtterøy — Graph


Nøtterøy Temperature Yesterday

Maximum temperature yesterday: 43 °F (at 12:50 PM)
Minimum temperature yesterday: 39 °F (at 8:20 AM)
Average temperature yesterday: 41 °F

High & Low Weather Summary for the Past Weeks

High46 °F (Oct 17, 8:20 PM)100% (Oct 13, 8:20 PM)30.57 "Hg (Oct 13, 8:20 PM)
Low32 °F (Oct 14, 11:50 AM)70% (Oct 15, 11:50 AM)30.09 "Hg (Oct 18, 2:20 PM)
Average41 °F94%30.33 "Hg
* Reported Oct 11 4:20 AM — Oct 26 4:50 AM, Nøtterøy, Weather by CustomWeather, © 2016

Note: Actual official high and low records may vary slightly from our data, if they occured in-between our weather recording intervals... More about our weather records


Nøtterøy Weather History for the Previous 24 Hours

Scroll right to see more
Time TempWeatherWind HumidityBarometerVisibility
4:50 AM
Wed, Oct 26
37 °FChilly.7 mph100%30.24 "HgN/A
4:20 AM37 °FChilly.8 mph100%30.24 "HgN/A
3:50 AM37 °FChilly.6 mph100%30.27 "HgN/A
3:20 AM37 °FChilly.8 mph100%30.27 "HgN/A
2:50 AM36 °FChilly.6 mph100%30.27 "HgN/A
2:20 AM36 °FChilly.6 mph100%30.27 "HgN/A
1:50 AM36 °FChilly.5 mph100%30.27 "HgN/A
1:20 AM37 °FChilly.5 mph100%30.27 "Hg6 mi
12:50 AM37 °FChilly.3 mph100%30.30 "HgN/A
12:20 AM37 °FChilly.3 mph100%30.30 "HgN/A
11:50 PM
Tue, Oct 25
39 °FChilly.5 mph100%30.30 "HgN/A
11:20 PM39 °FPassing clouds.6 mph100%30.30 "HgN/A
10:50 PM41 °FOvercast.3 mph100%30.30 "HgN/A
10:20 PM41 °FOvercast.1 mph100%30.30 "HgN/A
9:50 PM41 °FOvercast.3 mph100%30.30 "HgN/A
9:20 PM41 °FOvercast.3 mph100%30.30 "HgN/A
8:50 PM41 °FOvercast.No wind100%30.30 "HgN/A
8:20 PM41 °FOvercast.2 mph100%30.30 "HgN/A
7:50 PM41 °FOvercast.1 mph100%30.30 "HgN/A
7:20 PM41 °FOvercast.2 mph100%30.30 "HgN/A
6:50 PM41 °FPassing clouds.2 mph100%30.30 "HgN/A
6:20 PM41 °FPassing clouds.1 mph100%30.30 "HgN/A
5:50 PM41 °FPassing clouds.3 mph100%30.30 "HgN/A
5:20 PM41 °FPartly sunny.3 mph100%30.30 "HgN/A
4:50 PM43 °FPartly sunny.3 mph100%30.30 "HgN/A
4:20 PM43 °FPartly sunny.3 mph100%30.30 "HgN/A
3:50 PM43 °FPartly sunny.7 mph100%30.30 "HgN/A
3:20 PM43 °FBroken clouds.7 mph100%30.30 "HgN/A
2:50 PM43 °FBroken clouds.6 mph100%30.30 "HgN/A
2:20 PM43 °FBroken clouds.7 mph100%30.27 "HgN/A
1:50 PM43 °FBroken clouds.7 mph100%30.27 "HgN/A
1:20 PM43 °FPartly sunny.7 mph100%30.27 "HgN/A
12:50 PM43 °FBroken clouds.8 mph100%30.30 "HgN/A
12:20 PM41 °FBroken clouds.8 mph100%30.30 "HgN/A
11:50 AM41 °FDrizzle. Broken clouds.7 mph100%30.30 "HgN/A
11:20 AM41 °FBroken clouds.7 mph100%30.30 "HgN/A
10:50 AM41 °FBroken clouds.7 mph100%30.30 "HgN/A
10:20 AM41 °FBroken clouds.7 mph100%30.30 "HgN/A
9:50 AM41 °FBroken clouds.7 mph100%30.27 "HgN/A
9:20 AM39 °FBroken clouds.8 mph100%30.27 "HgN/A
8:50 AM39 °FBroken clouds.7 mph100%30.27 "HgN/A
8:20 AM39 °FPartly cloudy.7 mph100%30.27 "HgN/A
7:50 AM41 °FPassing clouds.8 mph100%30.27 "HgN/A
7:20 AM41 °FMostly cloudy.6 mph100%30.27 "HgN/A
6:50 AM41 °FMostly cloudy.6 mph100%30.27 "HgN/A
6:20 AM41 °FDrizzle. Low clouds.7 mph100%30.24 "HgN/A
Weather by CustomWeather, © 2016

See weather overviewHow to use our weather pages